EW3904 Weather Reports


Display with metric or nautical units.
time (UTC)temp
F
wind
direction
speed
MPH
gust
MPH
rain 1hr
in
rain 24hr
in
rain mn
in
humidity
%
barometer
mb
20260507223219 72 302 6.0 10.0 0.00 2.80 2.68 74 1011.7
20260507221219 74 329 9.0 9.0 0.00 2.80 2.68 74 1011.6
20260507215218 72 286 5.0 10.0 0.00 2.80 2.68 76 1011.4
20260507214219 73 302 10.0 10.0 0.00 2.80 2.68 75 1011.6
20260507213218 72 300 3.0 9.0 0.00 2.80 2.68 77 1011.6
20260507212218 73 300 8.0 12.0 0.00 2.80 2.68 76 1011.7
20260507211218 73 287 4.0 12.0 0.00 2.80 2.68 75 1011.4
20260507210218 73 319 5.0 9.0 0.00 2.80 2.68 76 1011.5
20260507205219 72 336 8.0 10.0 0.00 2.80 2.68 78 1011.3
20260507204218 72 350 4.0 11.0 0.00 2.80 2.68 78 1011.4
20260507203218 72 301 7.0 12.0 0.00 2.80 2.68 78 1011.3
20260507202219 72 328 5.0 11.0 0.00 2.80 2.68 79 1011.3
20260507201218 73 325 8.0 13.0 0.00 2.80 2.68 79 1011.4
20260507200218 72 315 7.0 11.0 0.00 2.80 2.68 78 1011.4
20260507195218 72 307 4.0 14.0 0.00 2.80 2.68 79 1011.5
20260507194218 72 355 5.0 11.0 0.00 2.80 2.68 79 1011.6
20260507193218 72 331 10.0 14.0 0.00 2.80 2.68 78 1011.7
20260507192218 72 300 8.0 11.0 0.00 2.80 2.68 78 1011.6
20260507191220 73 319 8.0 12.0 0.00 2.80 2.68 78 1011.4
20260507190217 73 346 5.0 10.0 0.00 2.80 2.68 81 1011.5
20260507184217 72 315 8.0 10.0 0.00 2.80 2.68 81 1011.6
20260507183218 72 288 4.0 7.0 0.00 2.80 2.68 82 1011.4
20260507182217 72 298 7.0 9.0 0.00 2.80 2.68 81 1011.5
20260507180217 73 262 5.0 10.0 0.00 2.80 2.68 81 1011.3
20260507175217 73 273 4.0 10.0 0.00 2.80 2.68 80 1011.6
20260507174217 72 317 3.0 10.0 0.00 2.80 2.68 81 1011.4
20260507173217 73 290 4.0 10.0 0.00 2.80 2.68 83 1011.6
20260507172217 72 325 4.0 9.0 0.00 2.80 2.68 82 1011.7
20260507171217 72 279 4.0 9.0 0.00 2.80 2.68 86 1011.8
20260507170217 72 335 3.0 9.0 0.00 2.80 2.68 86 1011.9
20260507165217 71 291 4.0 6.0 0.00 2.80 2.68 85 1011.7
20260507164217 70 271 8.0 9.0 0.00 2.80 2.68 86 1011.7
20260507162217 70 274 4.0 6.0 0.05 2.80 2.68 89 1011.7
20260507161216 69 338 3.0 9.0 0.17 2.80 2.68 90 1012.0
20260507160216 68 250 4.0 4.0 0.17 2.80 2.68 94 1011.9
20260507155216 67 253 3.0 4.0 0.17 2.80 2.68 93 1011.6
20260507154216 67 229 3.0 3.0 0.17 2.80 2.68 95 1011.5
20260507151216 67 22 4.0 4.0 0.01 2.63 2.51 93 1011.3
20260507150216 67 5 3.0 4.0 0.01 2.63 2.51 94 1011.0
20260507145216 66 5 2.0 6.0 0.01 2.63 2.51 94 1011.1
20260507144216 66 28 2.0 7.0 0.01 2.63 2.51 94 1011.0
20260507143216 66 50 3.0 5.0 0.00 2.62 2.50 95 1011.0
20260507142216 66 12 3.0 10.0 0.02 2.62 2.50 95 1011.0
20260507141216 66 33 9.0 10.0 0.11 2.62 2.50 95 1011.1
20260507140216 67 5 7.0 8.0 0.18 2.62 2.50 95 1010.7
20260507133216 68 42 9.0 15.0 0.42 2.62 2.50 96 1010.7
20260507132215 68 231 4.0 9.0 0.48 2.60 2.48 96 1010.2
20260507131215 68 257 3.0 8.0 0.54 2.51 2.39 96 1010.3
20260507130215 68 246 4.0 10.0 0.84 2.44 2.32 96 1010.4
20260507125215 68 281 3.0 9.0 0.82 2.28 2.16 96 1010.5
20260507124215 68 286 4.0 5.0 1.17 2.24 2.12 96 1009.9
20260507123215 68 263 4.0 4.0 1.55 2.20 2.08 96 1009.8
20260507121214 68 243 4.0 10.0 1.41 1.97 1.85 95 1009.9
20260507120215 68 265 6.0 9.0 1.04 1.60 1.48 95 1010.3
20260507115215 68 257 7.0 10.0 0.90 1.46 1.34 95 1009.5
20260507114214 68 263 7.0 15.0 0.51 1.07 0.95 95 1009.7
20260507113214 67 240 5.0 9.0 0.09 0.65 0.53 95 1009.5
20260507112214 67 192 2.0 5.0 0.00 0.56 0.44 95 1009.2
20260507110214 67 214 3.0 6.0 0.01 0.56 0.44 95 1009.4
20260507105214 67 216 5.0 10.0 0.01 0.56 0.44 95 1009.3
20260507104214 67 143 2.0 10.0 0.03 0.56 0.44 95 1009.6
20260507103214 67 194 4.0 8.0 0.05 0.56 0.44 95 1009.7
20260507102214 67 242 4.0 4.0 0.08 0.56 0.44 95 1009.6
20260507101214 67 171 5.0 6.0 0.13 0.55 0.43 95 1009.3
20260507100214 67 174 4.0 10.0 0.14 0.55 0.43 95 1009.4
20260507095214 67 164 2.0 7.0 0.14 0.55 0.43 95 1009.4
20260507094214 67 192 2.0 15.0 0.12 0.53 0.41 95 1008.7
20260507092214 67 157 1.0 8.0 0.08 0.48 0.36 95 1010.0
20260507090213 67 238 2.0 4.0 0.01 0.41 0.29 95 1011.0
20260507085213 67 125 4.0 6.0 0.01 0.41 0.29 95 1010.4
20260507084213 67 178 4.0 5.0 0.01 0.41 0.29 95 1011.1
20260507083213 67 204 3.0 4.0 0.01 0.41 0.29 95 1010.9
20260507082213 67 224 2.0 4.0 0.00 0.40 0.28 95 1010.9
20260507081213 67 200 2.0 4.0 0.00 0.40 0.28 95 1010.5
20260507080213 67 203 3.0 4.0 0.03 0.40 0.28 95 1010.7
20260507075213 67 196 3.0 5.0 0.05 0.40 0.28 95 1010.9
20260507074213 67 232 2.0 5.0 0.07 0.40 0.28 95 1011.0
20260507073213 67 183 2.0 6.0 0.08 0.40 0.28 95 1011.2
20260507071213 67 200 4.0 8.0 0.09 0.40 0.28 94 1010.5
20260507070213 67 207 2.0 10.0 0.07 0.37 0.25 94 1010.8
20260507065212 67 144 2.0 9.0 0.06 0.35 0.23 94 1010.8
20260507064212 67 184 2.0 4.0 0.06 0.33 0.21 94 1010.7
20260507063213 67 178 4.0 13.0 0.07 0.32 0.20 94 1010.2
20260507062212 67 221 2.0 10.0 0.10 0.31 0.19 93 1011.4
20260507061212 68 224 5.0 9.0 0.12 0.31 0.19 93 1011.7
20260507054212 68 184 10.0 11.0 0.13 0.27 0.15 93 1011.7
20260507053212 68 244 4.0 10.0 0.12 0.25 0.13 93 1012.3
20260507052212 68 240 7.0 10.0 0.08 0.21 0.09 93 1013.3
20260507051211 68 207 7.0 10.0 0.06 0.19 0.07 92 1013.2
20260507050211 69 202 4.0 10.0 0.05 0.17 0.05 92 1012.8
20260507045211 69 191 6.0 10.0 0.03 0.15 0.03 92 1012.9
20260507044211 69 221 4.0 10.0 0.02 0.14 0.02 91 1012.3
20260507043211 69 255 9.0 9.0 0.01 0.13 0.01 91 1012.4
20260507042211 69 238 4.0 8.0 0.03 0.13 0.01 91 1012.9
20260507041211 69 257 3.0 9.0 0.05 0.13 0.01 91 1013.2
20260507040241 69 244 7.0 9.0 0.04 0.12 0.00 91 1012.5
20260507034211 69 215 3.0 4.0 0.12 0.12 0.12 90 1012.3
20260507033211 70 225 3.0 8.0 0.12 0.12 0.12 90 1012.3
20260507032211 70 240 4.0 12.0 0.10 0.10 0.10 90 1012.0
20260507031211 70 225 7.0 9.0 0.08 0.08 0.08 89 1013.0
20260507030211 70 227 4.0 9.0 0.08 0.08 0.08 89 1013.0
20260507025211 71 201 4.0 8.0 0.08 0.08 0.08 87 1012.8
20260507024211 72 261 7.0 10.0 0.00 0.00 0.00 84 1014.6
20260507023211 72 209 6.0 7.0 0.00 0.00 0.00 84 1012.9
20260507022211 72 234 4.0 4.0 0.00 0.00 0.00 83 1012.7
20260507021211 73 193 0.0 3.0 0.00 0.00 0.00 83 1012.4
20260507020210 73 225 1.0 2.0 0.00 0.00 0.00 82 1012.7
20260507015210 74 225 0.0 2.0 0.00 0.00 0.00 79 1012.8
20260507013210 76 203 2.0 3.0 0.00 0.00 0.00 75 1012.9
20260507012210 76 241 2.0 4.0 0.00 0.00 0.00 73 1012.9
20260507011210 76 241 3.0 4.0 0.00 0.00 0.00 72 1012.8
20260507010210 76 266 3.0 4.0 0.00 0.00 0.00 72 1012.5
20260507004210 77 194 4.0 7.0 0.00 0.00 0.00 71 1012.7
20260507003210 77 222 3.0 9.0 0.00 0.00 0.00 71 1012.9
20260507002210 77 209 3.0 10.0 0.00 0.00 0.00 70 1012.9
20260507001210 78 226 3.0 5.0 0.00 0.00 0.00 70 1012.6
20260507000212 78 267 6.0 10.0 0.00 0.00 0.00 70 1012.9
20260506235209 78 228 2.0 6.0 0.00 0.00 0.00 70 1012.1
20260506233209 78 261 3.0 6.0 0.00 0.00 0.00 69 1012.1
20260506232210 79 245 4.0 7.0 0.00 0.00 0.00 68 1012.1
20260506231209 79 240 2.0 5.0 0.00 0.00 0.00 68 1011.7
20260506230209 79 240 4.0 10.0 0.00 0.00 0.00 68 1011.9
20260506225209 80 214 4.0 10.0 0.00 0.00 0.00 67 1012.5
20260506224209 80 212 3.0 10.0 0.00 0.00 0.00 66 1012.3